Dewpoint
63 63 63 64 64 64 63 61 60 60 60 59 58 57 57 57 57 56 56 56 55 55 56 54 54 54 55 55 54 54 54 54 52 50 48 46 43 42 52 47 51 47 47 47 43 36 37 32 32 36 41 43 39 39 44 41 39 41 42 42 42 43 42
63 63 64 64 63 62 61 59 59 58 58 58 57 56 56 56 57 55 55 55 56 56 56 55 54 53 51 51 51 51 51 50 51 50 47 45 44 41 44 44 45 45 45 46 47 46 43 38 39 35 35 40 41 44 44 44 44 42 45 44 48 47 48
63 63 63 63 62 61 59 58 58 57 56 56 55 55 55 55 55 56 56 55 54 56 56 54 53 53 51 51 50 50 50 50 49 49 48 47 47 47 45 45 45 44 42 42 43 42 41 42 39 37 40 36 35 40 45 43 42 44 43 42 42 41 34
63 63 62 61 61 60 58 58 57 56 56 55 55 55 55 55 56 57 56 55 55 57 54 52 52 51 51 50 50 49 48 48 48 48 48 47 46 46 45 45 44 42 41 41 40 42 40 38 38 38 39 40 37 41 42 45 48 45 40 41 39 33 35
63 63 62 61 60 59 58 57 57 56 55 55 54 54 54 54 54 54 55 54 55 53 51 51 51 51 50 49 49 48 47 47 47 47 46 45 45 45 44 44 44 44 44 42 43 42 40 40 38 37 37 38 41 44 46 41 41 33 29 32 36 35 34
63 63 62 61 60 59 58 57 56 55 54 53 53 53 54 53 53 53 53 54 54 53 51 51 50 50 50 50 49 48 47 46 45 45 44 44 44 43 43 44 43 43 43 43 43 41 41 41 38 37 36 38 37 39 37 39 33 29 28 30 30 35 35
62 62 62 61 60 59 58 57 56 55 54 53 53 53 54 53 52 52 51 51 52 51 51 50 50 50 49 48 48 47 46 46 46 46 45 45 44 44 43 41 41 42 42 42 41 41 40 38 37 35 36 37 38 32 33 22 26 26 28 30 31 33 35
62 62 61 61 60 58 58 57 56 55 53 53 53 53 55 52 52 50 51 51 50 50 50 50 50 49 49 48 48 48 48 46 46 46 45 44 44 43 43 42 43 42 41 41 41 41 40 39 38 39 35 30 31 35 36 36 32 29 29 30 30 33 35
62 62 61 60 60 59 58 57 56 55 54 54 54 54 54 52 50 49 50 49 50 49 49 48 48 48 48 48 48 47 46 47 45 44 44 43 42 42 42 42 41 41 42 42 42 41 40 40 40 40 39 31 28 28 35 33 35 30 32 32 32 33 35
62 61 61 60 60 59 59 58 56 55 54 54 54 54 53 51 49 48 48 48 48 48 48 48 48 48 48 47 46 45 45 45 44 42 42 41 41 41 40 40 40 41 41 42 41 42 42 40 39 38 39 37 34 31 32 31 33 31 33 37 35 34 37
62 61 61 60 60 59 59 58 56 55 54 54 53 54 51 50 49 51 48 48 48 47 47 47 47 47 46 46 45 45 45 44 43 43 43 42 41 42 43 42 40 39 40 38 39 41 41 39 38 37 38 38 37 34 34 32 31 34 34 37 37 35 37
62 61 61 61 60 59 59 57 56 55 54 53 54 52 50 49 48 48 48 47 47 47 46 46 46 46 46 45 46 45 45 43 43 43 43 42 42 41 40 40 40 39 39 38 37 38 39 39 40 39 38 38 37 36 35 34 30 33 37 35 37 39 39
62 61 61 60 60 59 58 57 56 54 53 54 52 51 50 49 48 47 47 47 46 46 45 45 45 46 45 45 45 44 44 43 42 42 42 42 42 41 40 40 40 40 40 40 40 40 38 41 39 39 38 38 37 37 37 35 33 33 37 36 37 39 37
61 61 61 60 60 59 58 57 55 54 54 53 51 50 49 48 47 47 47 47 45 45 45 45 46 45 45 44 45 44 43 42 42 42 42 41 41 41 41 40 40 41 40 40 39 39 41 41 40 40 40 38 37 37 36 35 34 35 37 39 39 38 38
62 61 60 60 60 59 58 56 55 54 53 52 50 50 49 48 47 47 47 46 45 45 45 45 45 44 44 44 44 44 43 42 42 42 42 41 41 41 40 39 39 39 38 38 39 39 38 36 34 36 38 37 36 37 38 36 36 34 33 37 36 37 36
61 60 60 60 60 59 57 55 55 53 52 51 50 49 49 48 47 47 47 46 45 46 45 45 45 44 44 44 43 43 43 42 42 42 41 40 40 40 39 39 38 39 40 38 39 39 39 39 36 35 37 39 37 38 39 38 36 35 35 35 37 35 36
61 60 60 60 59 58 56 55 54 53 52 51 50 50 49 48 47 46 46 46 46 46 45 45 44 43 44 43 43 42 42 42 41 41 40 40 40 39 39 39 40 41 40 38 38 38 38 38 36 36 36 38 37 38 38 38 37 35 35 32 34 34 37
61 60 60 60 59 57 55 54 53 52 51 50 50 49 49 47 46 46 46 45 45 45 45 44 43 44 44 43 42 42 41 41 41 40 41 40 45 40 41 40 41 40 39 38 37 36 37 36 36 36 36 37 37 38 38 38 38 37 34 32 34 37 37
61 60 60 59 58 56 55 54 53 52 51 50 49 49 48 47 46 45 45 45 45 45 44 44 43 43 43 43 43 42 42 41 41 40 41 43 42 42 41 40 41 40 37 37 37 38 39 38 37 36 35 35 36 36 35 35 36 35 32 32 32 34 36
61 60 59 58 57 56 54 54 53 52 51 50 49 48 47 46 46 45 45 45 45 45 44 44 43 42 42 43 42 41 41 41 41 41 42 43 42 42 41 42 42 40 38 37 37 37 38 38 37 37 38 36 35 34 34 34 33 32 32 32 33 34 34
60 60 59 57 56 55 54 53 53 52 51 50 49 48 47 46 45 45 45 45 45 45 44 44 42 42 42 42 42 41 41 41 41 41 42 43 43 41 40 39 38 38 37 37 36 37 37 36 34 34 35 35 35 32 32 33 32 32 31 32 32 32 34
60 59 58 57 56 54 54 53 53 52 51 50 49 48 47 46 45 44 44 44 45 45 44 44 42 42 42 41 41 41 41 41 41 41 42 42 39 37 36 35 34 35 42 44 45 43 41 40 33 31 34 36 35 33 32 32 33 32 32 31 31 33 32
59 58 57 56 55 54 53 53 52 51 50 50 49 48 47 46 44 44 44 44 44 45 45 44 45 45 44 42 41 41 42 41 41 42 42 38 35 34 34 35 43 45 44 45 46 44 43 44 41 33 32 34 33 32 31 30 32 34 31 29 30 31 31
59 57 56 56 55 54 53 52 51 51 50 49 48 48 46 45 44 43 43 43 44 44 44 43 44 41 40 43 42 42 41 41 41 42 39 35 33 34 37 40 41 41 41 40 36 38 39 39 39 41 42 42 40 32 31 30 33 33 35 30 31 31 31
58 57 56 55 54 54 53 52 51 50 49 48 48 47 46 45 44 43 43 43 43 44 44 45 40 40 40 40 43 42 41 41 42 41 38 34 34 34 34 36 37 38 31 28 29 29 33 33 33 34 34 35 36 37 41 37 38 32 33 30 30 31 31
58 56 55 55 54 53 52 51 50 50 49 48 47 46 46 45 44 44 43 42 43 43 43 42 40 40 39 40 40 42 41 42 42 41 38 34 32 32 32 34 34 36 36 33 39 28 27 30 37 37 37 38 37 36 33 33 36 38 33 33 31 31 32
57 56 55 54 54 53 52 51 50 50 49 48 47 46 46 45 44 44 43 42 42 43 42 42 39 39 39 39 39 41 41 42 42 42 41 36 33 30 28 29 33 34 38 41 34 31 31 33 35 36 37 35 34 37 39 37 35 36 38 34 31 30 32
57 56 55 54 53 52 52 51 50 49 48 48 46 46 45 44 44 44 43 42 42 42 43 41 39 39 39 39 39 41 42 43 44 45 42 40 38 36 35 35 35 35 39 44 42 35 31 32 34 37 37 37 37 37 38 37 36 35 35 35 31 30 31
56 55 54 54 53 52 51 50 49 49 48 48 47 46 45 45 45 44 43 42 42 41 42 39 38 39 39 39 39 44 43 43 43 43 42 39 39 38 35 32 32 35 40 42 45 42 41 39 38 39 40 41 41 41 41 45 41 39 37 34 33 32 32
56 55 54 53 52 52 51 50 49 49 48 47 46 45 45 45 45 44 43 42 41 41 41 39 38 39 39 39 42 44 44 43 43 44 43 41 39 38 36 33 34 38 41 41 41 40 39 40 36 36 37 39 41 41 40 38 39 38 38 37 36 36 36
55 55 54 53 52 52 51 50 49 49 47 46 46 45 46 45 46 45 43 42 41 41 40 40 39 39 39 41 43 45 45 44 44 43 43 44 43 40 39 43 42 41 41 39 38 37 36 36 31 33 36 37 39 40 37 37 37 37 38 38 37 37 37
55 55 54 54 53 52 51 50 49 48 47 46 46 46 46 45 46 46 44 43 46 41 40 40 39 39 40 40 43 45 45 44 44 43 43 44 45 43 41 46 47 44 42 40 36 35 34 33 29 34 36 37 39 38 35 34 34 34 34 34 33 35 35
55 55 54 54 53 52 51 50 49 48 47 46 46 46 46 45 46 46 45 43 43 41 40 40 41 39 40 40 42 44 44 43 43 43 43 44 44 44 43 44 46 41 40 38 35 33 32 33 31 35 36 35 36 37 38 35 38 36 34 35 33 35 36
55 54 54 53 53 51 50 49 48 47 46 46 46 47 47 46 46 46 45 44 42 40 41 40 41 39 39 39 40 42 43 42 42 43 43 43 42 42 43 44 45 42 38 36 34 32 32 33 35 35 34 34 36 39 36 34 38 39 35 36 36 35 34
55 54 54 53 52 51 50 49 48 47 47 46 46 46 47 46 46 46 44 43 41 41 43 43 42 39 38 39 40 41 43 43 42 43 43 43 41 41 42 44 43 40 37 35 33 31 32 33 34 37 34 34 36 34 35 39 37 35 35 35 34 33 33
54 54 53 52 52 51 49 49 48 47 47 47 47 46 46 46 46 45 44 43 42 43 44 44 41 41 38 38 38 39 40 41 39 43 43 43 42 42 42 43 43 41 36 34 32 31 31 32 34 32 33 34 35 34 36 36 34 33 32 32 34 32 32
54 53 52 52 51 50 49 49 48 48 47 46 46 46 46 46 45 45 45 44 44 44 44 44 42 40 39 37 37 38 38 39 39 41 42 42 43 42 39 40 41 38 36 35 32 31 31 32 30 31 33 33 34 35 36 34 32 33 32 33 32 31 30